Time,TemperatureF,DewpointF,PressureIn,WindDirection,WindDirectionDegrees,WindSpeedMPH,WindSpeedGustMPH,Humidity,HourlyPrecipIn,Conditions,Clouds,dailyrainin,SolarRadiationWatts/m^2,SoftwareType,DateUTC
2013-08-18 00:00:00,60.4,55.9,29.99,WSW,254,1.0,6.0,85,0.00,,,0.00,0.0,meteohub,2013-08-18 07:00:00,
2013-08-18 00:05:00,60.4,55.9,29.99,SW,230,1.0,6.0,85,0.00,,,0.00,0.0,meteohub,2013-08-18 07:05:00,
2013-08-18 00:10:00,60.4,55.9,29.99,WSW,254,0.0,5.0,85,0.00,,,0.00,0.0,meteohub,2013-08-18 07:10:00,
2013-08-18 00:15:00,60.4,55.9,29.99,WSW,244,0.0,6.0,85,0.00,,,0.00,0.0,meteohub,2013-08-18 07:15:00,
2013-08-18 00:20:00,60.4,55.9,29.99,WSW,244,0.0,6.0,85,0.00,,,0.00,0.0,meteohub,2013-08-18 07:20:00,
2013-08-18 00:25:00,60.3,55.8,29.99,WSW,242,1.0,4.0,85,0.00,,,0.00,0.0,meteohub,2013-08-18 07:25:00,
2013-08-18 00:30:00,60.3,55.8,29.99,WSW,249,0.0,4.0,85,0.00,,,0.00,0.0,meteohub,2013-08-18 07:30:00,
2013-08-18 00:35:00,60.1,55.6,29.99,SSW,213,0.0,4.0,85,0.00,,,0.00,0.0,meteohub,2013-08-18 07:35:00,
2013-08-18 00:40:00,59.9,55.4,29.99,SW,215,1.0,4.0,85,0.00,,,0.00,0.0,meteohub,2013-08-18 07:40:00,
2013-08-18 00:45:00,59.7,55.6,29.99,SW,219,1.0,4.0,86,0.00,,,0.00,0.0,meteohub,2013-08-18 07:45:00,
2013-08-18 00:50:00,59.7,55.6,29.99,SSW,205,1.0,4.0,86,0.00,,,0.00,0.0,meteohub,2013-08-18 07:50:00,
2013-08-18 00:55:00,59.9,55.8,29.99,WSW,241,3.0,4.0,86,0.00,,,0.00,0.0,meteohub,2013-08-18 07:55:00,
2013-08-18 01:00:00,60.1,55.9,29.99,WSW,241,0.0,4.0,86,0.00,,,0.00,0.0,meteohub,2013-08-18 08:00:00,
2013-08-18 01:05:00,60.1,55.9,29.99,SW,236,0.0,4.0,86,0.00,,,0.00,0.0,meteohub,2013-08-18 08:05:00,
2013-08-18 01:10:00,60.3,56.1,29.99,WSW,242,2.0,4.0,86,0.00,,,0.00,0.0,meteohub,2013-08-18 08:10:00,
2013-08-18 01:15:00,60.3,56.1,29.98,WSW,240,4.0,4.0,86,0.00,,,0.00,0.0,meteohub,2013-08-18 08:15:00,
2013-08-18 01:20:00,60.4,55.9,29.98,WSW,241,3.0,6.0,85,0.00,,,0.00,0.0,meteohub,2013-08-18 08:20:00,
2013-08-18 01:25:00,60.4,55.9,29.98,SW,225,1.0,6.0,85,0.00,,,0.00,0.0,meteohub,2013-08-18 08:25:00,
2013-08-18 01:30:00,60.6,56.1,29.98,SW,225,0.0,6.0,85,0.00,,,0.00,0.0,meteohub,2013-08-18 08:30:00,
2013-08-18 01:36:00,60.6,55.8,29.98,SW,225,0.0,6.0,84,0.00,,,0.00,0.0,meteohub,2013-08-18 08:36:00,
2013-08-18 01:41:00,60.6,55.8,29.98,SW,225,1.0,6.0,84,0.00,,,0.00,0.0,meteohub,2013-08-18 08:41:00,
2013-08-18 01:46:00,60.4,55.6,29.98,SSW,212,4.0,8.0,84,0.00,,,0.00,0.0,meteohub,2013-08-18 08:46:00,
2013-08-18 01:51:00,60.6,55.8,29.98,WSW,238,0.0,8.0,84,0.00,,,0.00,0.0,meteohub,2013-08-18 08:51:00,
2013-08-18 01:56:00,60.6,55.8,29.99,WSW,249,5.0,8.0,84,0.00,,,0.00,0.0,meteohub,2013-08-18 08:56:00,
2013-08-18 02:01:00,61.0,55.8,29.98,WSW,244,0.0,7.0,83,0.00,,,0.00,0.0,meteohub,2013-08-18 09:01:00,
2013-08-18 02:06:00,61.0,55.8,29.98,WSW,242,1.0,6.0,83,0.00,,,0.00,0.0,meteohub,2013-08-18 09:06:00,
2013-08-18 02:11:00,61.0,55.8,29.98,SW,231,1.0,6.0,83,0.00,,,0.00,0.0,meteohub,2013-08-18 09:11:00,
2013-08-18 02:16:00,61.0,55.8,29.98,WSW,243,1.0,6.0,83,0.00,,,0.00,0.0,meteohub,2013-08-18 09:16:00,
2013-08-18 02:21:00,61.0,55.8,29.98,SW,224,2.0,6.0,83,0.00,,,0.00,0.0,meteohub,2013-08-18 09:21:00,
2013-08-18 02:26:00,61.2,55.9,29.98,WSW,248,2.0,6.0,83,0.00,,,0.00,0.0,meteohub,2013-08-18 09:26:00,
2013-08-18 02:31:00,61.0,55.8,29.98,SW,215,1.0,6.0,83,0.00,,,0.00,0.0,meteohub,2013-08-18 09:31:00,
2013-08-18 02:36:00,61.0,55.8,29.98,SW,216,0.0,6.0,83,0.00,,,0.00,0.0,meteohub,2013-08-18 09:36:00,
2013-08-18 02:41:00,61.0,55.8,29.98,SW,221,0.0,5.0,83,0.00,,,0.00,0.0,meteohub,2013-08-18 09:41:00,
2013-08-18 02:46:00,61.0,55.8,29.97,SW,221,1.0,3.0,83,0.00,,,0.00,0.0,meteohub,2013-08-18 09:46:00,
2013-08-18 02:51:00,60.8,55.9,29.97,SW,221,1.0,3.0,84,0.00,,,0.00,0.0,meteohub,2013-08-18 09:51:00,
2013-08-18 02:56:00,60.8,55.9,29.97,WNW,300,0.0,2.0,84,0.00,,,0.00,0.0,meteohub,2013-08-18 09:56:00,
2013-08-18 03:01:00,60.6,55.8,29.97,WNW,300,0.0,2.0,84,0.00,,,0.00,0.0,meteohub,2013-08-18 10:01:00,
2013-08-18 03:06:00,60.4,55.6,29.97,WNW,300,0.0,2.0,84,0.00,,,0.00,0.0,meteohub,2013-08-18 10:06:00,
2013-08-18 03:11:00,60.3,55.4,29.97,WNW,300,0.0,1.0,84,0.00,,,0.00,0.0,meteohub,2013-08-18 10:11:00,
2013-08-18 03:16:00,60.1,55.6,29.97,WNW,299,0.0,1.0,85,0.00,,,0.00,0.0,meteohub,2013-08-18 10:16:00,
2013-08-18 03:21:00,60.1,55.6,29.97,WNW,298,0.0,2.0,85,0.00,,,0.00,0.0,meteohub,2013-08-18 10:21:00,
2013-08-18 03:26:00,59.9,55.4,29.97,WNW,298,0.0,2.0,85,0.00,,,0.00,0.0,meteohub,2013-08-18 10:26:00,
2013-08-18 03:31:00,59.9,55.8,29.98,WNW,298,0.0,2.0,86,0.00,,,0.00,0.0,meteohub,2013-08-18 10:31:00,
2013-08-18 03:37:00,59.7,55.6,29.98,WNW,298,0.0,1.0,86,0.00,,,0.00,0.0,meteohub,2013-08-18 10:37:00,
2013-08-18 03:42:00,59.7,55.8,29.97,WNW,298,0.0,1.0,87,0.00,,,0.00,0.0,meteohub,2013-08-18 10:42:00,
2013-08-18 03:47:00,59.5,55.6,29.97,West,259,0.0,3.0,87,0.00,,,0.00,0.0,meteohub,2013-08-18 10:47:00,
2013-08-18 03:52:00,59.5,55.6,29.97,WSW,258,1.0,3.0,87,0.00,,,0.00,0.0,meteohub,2013-08-18 10:52:00,
2013-08-18 03:57:00,59.5,55.9,29.97,SW,232,1.0,4.0,88,0.00,,,0.00,0.0,meteohub,2013-08-18 10:57:00,
2013-08-18 04:02:00,59.5,55.9,29.97,NW,317,0.0,4.0,88,0.00,,,0.00,0.0,meteohub,2013-08-18 11:02:00,
2013-08-18 04:07:00,59.5,55.9,29.97,NW,310,2.0,4.0,88,0.00,,,0.00,0.0,meteohub,2013-08-18 11:07:00,
2013-08-18 04:12:00,59.5,55.9,29.97,West,267,0.0,4.0,88,0.00,,,0.00,0.0,meteohub,2013-08-18 11:12:00,
2013-08-18 04:17:00,59.4,55.8,29.97,West,267,0.0,4.0,88,0.00,,,0.00,0.0,meteohub,2013-08-18 11:17:00,
2013-08-18 04:22:00,59.4,55.8,29.97,WSW,242,0.0,3.0,88,0.00,,,0.00,0.0,meteohub,2013-08-18 11:22:00,
2013-08-18 04:27:00,59.4,56.1,29.97,WSW,242,0.0,3.0,89,0.00,,,0.00,0.0,meteohub,2013-08-18 11:27:00,
2013-08-18 04:32:00,59.4,55.8,29.97,WSW,242,1.0,3.0,88,0.00,,,0.00,0.0,meteohub,2013-08-18 11:32:00,
2013-08-18 04:37:00,59.4,56.1,29.97,SW,228,0.0,5.0,89,0.00,,,0.00,0.0,meteohub,2013-08-18 11:37:00,
2013-08-18 04:42:00,59.4,56.1,29.97,West,273,1.0,5.0,89,0.00,,,0.00,0.0,meteohub,2013-08-18 11:42:00,
2013-08-18 04:47:00,59.5,56.3,29.97,West,273,1.0,5.0,89,0.00,,,0.00,0.0,meteohub,2013-08-18 11:47:00,
2013-08-18 04:52:00,59.5,56.3,29.97,West,273,0.0,4.0,89,0.00,,,0.00,0.0,meteohub,2013-08-18 11:52:00,
2013-08-18 04:57:00,59.5,56.3,29.96,SW,229,3.0,3.0,89,0.00,,,0.00,0.0,meteohub,2013-08-18 11:57:00,
2013-08-18 05:02:00,59.5,56.3,29.96,WSW,247,1.0,4.0,89,0.00,,,0.00,0.0,meteohub,2013-08-18 12:02:00,
2013-08-18 05:07:00,59.5,56.3,29.96,NW,313,0.0,4.0,89,0.00,,,0.00,0.0,meteohub,2013-08-18 12:07:00,
2013-08-18 05:12:00,59.5,56.3,29.97,WSW,242,1.0,4.0,89,0.00,,,0.00,0.0,meteohub,2013-08-18 12:12:00,
2013-08-18 05:17:00,59.5,56.3,29.97,WSW,241,0.0,4.0,89,0.00,,,0.00,0.0,meteohub,2013-08-18 12:17:00,
2013-08-18 05:22:00,59.5,56.3,29.97,WSW,240,0.0,3.0,89,0.00,,,0.00,0.0,meteohub,2013-08-18 12:22:00,
2013-08-18 05:27:00,59.5,55.9,29.97,WSW,240,0.0,3.0,88,0.00,,,0.00,0.0,meteohub,2013-08-18 12:27:00,
2013-08-18 05:32:00,59.5,55.9,29.97,WSW,240,1.0,2.0,88,0.00,,,0.00,0.0,meteohub,2013-08-18 12:32:00,
2013-08-18 05:37:00,59.5,55.9,29.97,WSW,240,0.0,2.0,88,0.00,,,0.00,0.0,meteohub,2013-08-18 12:37:00,
2013-08-18 05:42:00,59.5,55.9,29.97,WSW,240,0.0,2.0,88,0.00,,,0.00,0.0,meteohub,2013-08-18 12:42:00,
2013-08-18 05:47:00,59.4,55.8,29.97,WSW,240,0.0,2.0,88,0.00,,,0.00,0.0,meteohub,2013-08-18 12:47:00,
2013-08-18 05:52:00,59.4,55.8,29.97,NW,317,0.0,2.0,88,0.00,,,0.00,0.0,meteohub,2013-08-18 12:52:00,
2013-08-18 05:57:00,59.4,55.8,29.97,NW,317,0.0,2.0,88,0.00,,,0.00,0.0,meteohub,2013-08-18 12:57:00,
2013-08-18 06:02:00,59.2,55.6,29.97,NW,317,0.0,2.0,88,0.00,,,0.00,0.0,meteohub,2013-08-18 13:02:00,
2013-08-18 06:07:00,59.2,55.6,29.98,NW,317,0.0,0.0,88,0.00,,,0.00,0.0,meteohub,2013-08-18 13:07:00,
2013-08-18 06:12:00,59.2,55.6,29.98,NW,317,0.0,1.0,88,0.00,,,0.00,0.0,meteohub,2013-08-18 13:12:00,
2013-08-18 06:17:00,59.0,55.8,29.98,NW,317,0.0,2.0,89,0.00,,,0.00,0.0,meteohub,2013-08-18 13:17:00,
2013-08-18 06:22:00,59.0,55.8,29.98,NW,308,0.0,3.0,89,0.00,,,0.00,0.0,meteohub,2013-08-18 13:22:00,
2013-08-18 06:27:00,59.0,55.8,29.99,WNW,290,0.0,3.0,89,0.00,,,0.00,0.0,meteohub,2013-08-18 13:27:00,
2013-08-18 06:32:00,58.8,55.6,29.99,WNW,290,0.0,2.0,89,0.00,,,0.00,0.0,meteohub,2013-08-18 13:32:00,
2013-08-18 06:37:00,58.8,55.6,29.99,WNW,290,0.0,2.0,89,0.00,,,0.00,0.0,meteohub,2013-08-18 13:37:00,
2013-08-18 06:42:00,58.8,55.6,29.99,WNW,290,0.0,1.0,89,0.00,,,0.00,5.0,meteohub,2013-08-18 13:42:00,
2013-08-18 06:47:00,58.8,55.6,29.99,WNW,290,0.0,1.0,89,0.00,,,0.00,5.0,meteohub,2013-08-18 13:47:00,
2013-08-18 06:52:00,58.8,55.6,29.99,WNW,290,0.0,1.0,89,0.00,,,0.00,7.0,meteohub,2013-08-18 13:52:00,
2013-08-18 06:57:00,58.6,55.4,29.99,WNW,290,0.0,1.0,89,0.00,,,0.00,7.0,meteohub,2013-08-18 13:57:00,
2013-08-18 07:02:00,58.6,55.8,29.99,WNW,290,0.0,1.0,90,0.00,,,0.00,7.0,meteohub,2013-08-18 14:02:00,
2013-08-18 07:07:00,58.6,55.8,29.99,WNW,290,0.0,1.0,90,0.00,,,0.00,9.0,meteohub,2013-08-18 14:07:00,
2013-08-18 07:12:00,58.6,55.8,29.99,WNW,290,0.0,1.0,90,0.00,,,0.00,9.0,meteohub,2013-08-18 14:12:00,
2013-08-18 07:17:00,58.6,55.8,29.99,WNW,290,0.0,1.0,90,0.00,,,0.00,11.0,meteohub,2013-08-18 14:17:00,
2013-08-18 07:22:00,58.6,55.9,29.99,WNW,290,0.0,1.0,91,0.00,,,0.00,11.0,meteohub,2013-08-18 14:22:00,
2013-08-18 07:27:00,58.6,55.9,29.99,WNW,290,0.0,1.0,91,0.00,,,0.00,11.0,meteohub,2013-08-18 14:27:00,
2013-08-18 07:32:00,58.6,55.9,29.99,WNW,290,0.0,1.0,91,0.00,,,0.00,12.0,meteohub,2013-08-18 14:32:00,
2013-08-18 07:37:00,58.6,55.9,29.99,WNW,290,0.0,0.0,91,0.00,,,0.00,14.0,meteohub,2013-08-18 14:37:00,
2013-08-18 07:42:00,58.6,55.9,29.99,WNW,290,0.0,0.0,91,0.00,,,0.00,16.0,meteohub,2013-08-18 14:42:00,
2013-08-18 07:47:00,58.6,55.9,29.99,WNW,290,0.0,0.0,91,0.00,,,0.00,16.0,meteohub,2013-08-18 14:47:00,
2013-08-18 07:52:00,58.6,55.9,29.99,WNW,290,0.0,0.0,91,0.00,,,0.00,18.0,meteohub,2013-08-18 14:52:00,
2013-08-18 07:57:00,58.6,55.9,30.00,WNW,290,0.0,0.0,91,0.00,,,0.00,18.0,meteohub,2013-08-18 14:57:00,
2013-08-18 08:02:00,59.0,56.3,30.00,WNW,290,0.0,0.0,91,0.00,,,0.00,23.0,meteohub,2013-08-18 15:02:00,
2013-08-18 08:07:00,59.2,56.5,30.00,WNW,290,0.0,0.0,91,0.00,,,0.00,18.0,meteohub,2013-08-18 15:07:00,
2013-08-18 08:12:00,59.5,57.2,30.00,WNW,290,0.0,0.0,92,0.00,,,0.00,19.0,meteohub,2013-08-18 15:12:00,
2013-08-18 08:17:00,59.7,57.4,30.00,WNW,290,0.0,1.0,92,0.00,,,0.00,19.0,meteohub,2013-08-18 15:17:00,
2013-08-18 08:22:00,60.1,57.7,30.00,WNW,290,0.0,1.0,92,0.00,,,0.00,28.0,meteohub,2013-08-18 15:22:00,
2013-08-18 08:27:00,60.3,57.9,30.00,WNW,290,0.0,0.0,92,0.00,,,0.00,19.0,meteohub,2013-08-18 15:27:00,
2013-08-18 08:32:00,60.6,57.9,30.00,WNW,290,0.0,0.0,91,0.00,,,0.00,21.0,meteohub,2013-08-18 15:32:00,
2013-08-18 08:37:00,60.8,58.1,30.00,WNW,290,0.0,0.0,91,0.00,,,0.00,21.0,meteohub,2013-08-18 15:37:00,
2013-08-18 08:42:00,61.2,58.5,30.00,WNW,290,0.0,0.0,91,0.00,,,0.00,21.0,meteohub,2013-08-18 15:42:00,
2013-08-18 08:47:00,61.5,58.8,30.00,WNW,290,0.0,1.0,91,0.00,,,0.00,21.0,meteohub,2013-08-18 15:47:00,
2013-08-18 08:52:00,62.2,59.0,30.00,WNW,290,0.0,1.0,89,0.00,,,0.00,23.0,meteohub,2013-08-18 15:52:00,
2013-08-18 08:57:00,62.8,59.2,30.00,WNW,290,0.0,1.0,88,0.00,,,0.00,23.0,meteohub,2013-08-18 15:57:00,
2013-08-18 09:02:00,63.5,59.2,30.00,WNW,290,0.0,1.0,86,0.00,,,0.00,23.0,meteohub,2013-08-18 16:02:00,
2013-08-18 09:07:00,64.0,59.2,30.00,WNW,290,0.0,1.0,84,0.00,,,0.00,25.0,meteohub,2013-08-18 16:07:00,
2013-08-18 09:12:00,64.6,59.0,30.00,WNW,290,0.0,1.0,82,0.00,,,0.00,25.0,meteohub,2013-08-18 16:12:00,
2013-08-18 09:17:00,64.9,59.0,30.00,WNW,290,0.0,1.0,81,0.00,,,0.00,25.0,meteohub,2013-08-18 16:17:00,
2013-08-18 09:22:00,65.7,59.7,30.00,WNW,290,0.0,1.0,81,0.00,,,0.00,26.0,meteohub,2013-08-18 16:22:00,
2013-08-18 09:27:00,66.4,60.1,30.00,WNW,285,1.0,1.0,80,0.00,,,0.00,26.0,meteohub,2013-08-18 16:27:00,
2013-08-18 09:32:00,67.1,60.4,30.00,WNW,285,0.0,2.0,79,0.00,,,0.00,28.0,meteohub,2013-08-18 16:32:00,
2013-08-18 09:37:00,67.5,60.4,30.00,WNW,285,0.0,2.0,78,0.00,,,0.00,28.0,meteohub,2013-08-18 16:37:00,
2013-08-18 09:42:00,68.0,60.4,30.00,WNW,285,0.0,2.0,77,0.00,,,0.00,28.0,meteohub,2013-08-18 16:42:00,
2013-08-18 09:47:00,68.4,60.8,30.00,WNW,285,0.0,1.0,77,0.00,,,0.00,30.0,meteohub,2013-08-18 16:47:00,
2013-08-18 09:52:00,69.1,60.8,30.00,WNW,285,0.0,1.0,75,0.00,,,0.00,30.0,meteohub,2013-08-18 16:52:00,
2013-08-18 09:57:00,69.4,60.8,30.00,WNW,285,0.0,1.0,74,0.00,,,0.00,35.0,meteohub,2013-08-18 16:57:00,
2013-08-18 10:02:00,70.2,60.6,30.00,WNW,284,0.0,1.0,72,0.00,,,0.00,39.0,meteohub,2013-08-18 17:02:00,
2013-08-18 10:07:00,71.2,61.0,29.99,WSW,250,0.0,2.0,70,0.00,,,0.00,49.0,meteohub,2013-08-18 17:07:00,
2013-08-18 10:12:00,71.8,61.0,30.00,WSW,251,1.0,2.0,69,0.00,,,0.00,58.0,meteohub,2013-08-18 17:12:00,
2013-08-18 10:17:00,72.1,60.6,29.99,WSW,251,0.0,2.0,67,0.00,,,0.00,60.0,meteohub,2013-08-18 17:17:00,
2013-08-18 10:22:00,73.0,60.6,29.99,SW,231,0.0,2.0,65,0.00,,,0.00,51.0,meteohub,2013-08-18 17:22:00,
2013-08-18 10:27:00,73.6,60.3,29.99,SW,231,0.0,3.0,63,0.00,,,0.00,86.0,meteohub,2013-08-18 17:27:00,
2013-08-18 10:32:00,74.5,60.6,30.00,SW,231,0.0,3.0,62,0.00,,,0.00,88.0,meteohub,2013-08-18 17:32:00,
2013-08-18 10:37:00,75.0,60.3,30.00,SW,231,1.0,4.0,60,0.00,,,0.00,113.0,meteohub,2013-08-18 17:37:00,
2013-08-18 10:42:00,75.7,60.8,29.99,SW,231,1.0,4.0,60,0.00,,,0.00,146.0,meteohub,2013-08-18 17:42:00,
2013-08-18 10:47:00,76.5,61.0,30.00,SW,231,0.0,4.0,59,0.00,,,0.00,151.0,meteohub,2013-08-18 17:47:00,
2013-08-18 10:52:00,77.0,60.6,29.99,SW,231,0.0,3.0,57,0.00,,,0.00,144.0,meteohub,2013-08-18 17:52:00,
2013-08-18 10:57:00,77.7,60.8,30.00,SW,231,1.0,3.0,56,0.00,,,0.00,141.0,meteohub,2013-08-18 17:57:00,
2013-08-18 11:02:00,78.6,61.2,30.00,SW,231,3.0,3.0,55,0.00,,,0.00,137.0,meteohub,2013-08-18 18:02:00,
2013-08-18 11:07:00,79.5,60.8,30.00,SW,231,0.0,3.0,53,0.00,,,0.00,120.0,meteohub,2013-08-18 18:07:00,
2013-08-18 11:12:00,80.2,61.0,30.00,SW,231,1.0,3.0,52,0.00,,,0.00,141.0,meteohub,2013-08-18 18:12:00,
2013-08-18 11:17:00,81.1,60.1,30.00,NNW,342,0.0,3.0,49,0.00,,,0.00,160.0,meteohub,2013-08-18 18:17:00,
2013-08-18 11:22:00,81.7,60.1,29.99,NNW,342,0.0,3.0,48,0.00,,,0.00,169.0,meteohub,2013-08-18 18:22:00,
2013-08-18 11:27:00,81.9,60.3,29.99,NNW,342,1.0,3.0,48,0.00,,,0.00,186.0,meteohub,2013-08-18 18:27:00,
2013-08-18 11:32:00,82.4,61.3,29.99,NNW,344,1.0,1.0,49,0.00,,,0.00,181.0,meteohub,2013-08-18 18:32:00,
2013-08-18 11:37:00,82.8,60.4,29.99,NNW,344,0.0,1.0,47,0.00,,,0.00,186.0,meteohub,2013-08-18 18:37:00,
2013-08-18 11:42:00,82.6,60.3,29.99,NNW,344,0.0,1.0,47,0.00,,,0.00,236.0,meteohub,2013-08-18 18:42:00,
2013-08-18 11:47:00,82.8,61.0,29.99,NNW,344,0.0,1.0,48,0.00,,,0.00,250.0,meteohub,2013-08-18 18:47:00,
2013-08-18 11:52:00,83.7,61.3,29.99,NNW,344,0.0,1.0,47,0.00,,,0.00,267.0,meteohub,2013-08-18 18:52:00,
2013-08-18 11:57:00,83.7,60.1,29.99,NNW,344,0.0,1.0,45,0.00,,,0.00,320.0,meteohub,2013-08-18 18:57:00,
2013-08-18 12:02:00,83.7,60.6,29.99,NNW,344,0.0,1.0,46,0.00,,,0.00,872.0,meteohub,2013-08-18 19:02:00,
2013-08-18 12:07:00,84.4,61.3,29.99,NNW,344,0.0,1.0,46,0.00,,,0.00,283.0,meteohub,2013-08-18 19:07:00,
2013-08-18 12:12:00,85.3,61.5,29.99,NNW,344,1.0,1.0,45,0.00,,,0.00,842.0,meteohub,2013-08-18 19:12:00,
2013-08-18 12:17:00,86.4,61.2,29.98,NNW,330,0.0,2.0,43,0.00,,,0.00,689.0,meteohub,2013-08-18 19:17:00,
2013-08-18 12:22:00,87.1,61.2,29.98,WSW,252,2.0,2.0,42,0.00,,,0.00,842.0,meteohub,2013-08-18 19:22:00,
2013-08-18 12:27:00,88.0,60.6,29.98,NW,317,0.0,3.0,40,0.00,,,0.00,877.0,meteohub,2013-08-18 19:27:00,
2013-08-18 12:32:00,88.2,60.8,29.98,SE,142,0.0,3.0,40,0.00,,,0.00,559.0,meteohub,2013-08-18 19:32:00,
2013-08-18 12:37:00,88.3,60.3,29.98,WNW,288,2.0,3.0,39,0.00,,,0.00,455.0,meteohub,2013-08-18 19:37:00,
2013-08-18 12:42:00,88.5,59.7,29.98,ENE,65,1.0,3.0,38,0.00,,,0.00,582.0,meteohub,2013-08-18 19:42:00,
2013-08-18 12:47:00,88.2,59.4,29.97,ENE,65,0.0,3.0,38,0.00,,,0.00,350.0,meteohub,2013-08-18 19:47:00,
2013-08-18 12:52:00,88.3,60.3,29.97,NNE,22,0.0,3.0,39,0.00,,,0.00,318.0,meteohub,2013-08-18 19:52:00,
2013-08-18 12:57:00,88.3,59.5,29.97,NE,38,0.0,3.0,38,0.00,,,0.00,497.0,meteohub,2013-08-18 19:57:00,
2013-08-18 13:02:00,88.5,59.7,29.97,NE,38,0.0,2.0,38,0.00,,,0.00,679.0,meteohub,2013-08-18 20:02:00,
2013-08-18 13:07:00,89.2,58.8,29.97,ENE,57,0.0,2.0,36,0.00,,,0.00,763.0,meteohub,2013-08-18 20:07:00,
2013-08-18 13:12:00,89.8,59.2,29.96,ENE,57,0.0,3.0,36,0.00,,,0.00,621.0,meteohub,2013-08-18 20:12:00,
2013-08-18 13:17:00,90.9,59.4,29.96,NE,42,2.0,3.0,35,0.00,,,0.00,937.0,meteohub,2013-08-18 20:17:00,
2013-08-18 13:22:00,91.2,59.0,29.96,East,84,2.0,3.0,34,0.00,,,0.00,448.0,meteohub,2013-08-18 20:22:00,
2013-08-18 13:27:00,91.6,58.5,29.96,West,281,3.0,5.0,33,0.00,,,0.00,763.0,meteohub,2013-08-18 20:27:00,
2013-08-18 13:32:00,92.1,58.8,29.96,ENE,64,4.0,5.0,33,0.00,,,0.00,851.0,meteohub,2013-08-18 20:32:00,
2013-08-18 13:37:00,92.1,58.8,29.96,ENE,69,0.0,5.0,33,0.00,,,0.00,831.0,meteohub,2013-08-18 20:37:00,
2013-08-18 13:42:00,92.7,59.4,29.96,East,94,1.0,5.0,33,0.00,,,0.00,687.0,meteohub,2013-08-18 20:42:00,
2013-08-18 13:47:00,93.0,58.8,29.96,ENE,76,2.0,5.0,32,0.00,,,0.00,779.0,meteohub,2013-08-18 20:47:00,
2013-08-18 13:52:00,93.2,58.1,29.96,ENE,70,1.0,5.0,31,0.00,,,0.00,902.0,meteohub,2013-08-18 20:52:00,
2013-08-18 13:57:00,93.6,58.5,29.96,East,80,3.0,5.0,31,0.00,,,0.00,933.0,meteohub,2013-08-18 20:57:00,
2013-08-18 14:02:00,93.7,58.5,29.96,ENE,74,1.0,5.0,31,0.00,,,0.00,754.0,meteohub,2013-08-18 21:02:00,
2013-08-18 14:07:00,94.1,58.8,29.95,ESE,103,1.0,5.0,31,0.00,,,0.00,668.0,meteohub,2013-08-18 21:07:00,
2013-08-18 14:12:00,94.6,59.4,29.95,NW,323,1.0,5.0,31,0.00,,,0.00,670.0,meteohub,2013-08-18 21:12:00,
2013-08-18 14:17:00,94.8,57.6,29.95,ENE,71,1.0,4.0,29,0.00,,,0.00,766.0,meteohub,2013-08-18 21:17:00,
2013-08-18 14:22:00,94.8,58.5,29.94,ENE,71,1.0,4.0,30,0.00,,,0.00,821.0,meteohub,2013-08-18 21:22:00,
2013-08-18 14:27:00,94.8,57.6,29.94,ENE,76,1.0,6.0,29,0.00,,,0.00,872.0,meteohub,2013-08-18 21:27:00,
2013-08-18 14:32:00,94.8,57.6,29.94,ENE,68,0.0,6.0,29,0.00,,,0.00,777.0,meteohub,2013-08-18 21:32:00,
2013-08-18 14:37:00,95.5,57.2,29.94,NW,311,3.0,6.0,28,0.00,,,0.00,889.0,meteohub,2013-08-18 21:37:00,
2013-08-18 14:42:00,95.5,56.3,29.94,ENE,71,1.0,7.0,27,0.00,,,0.00,896.0,meteohub,2013-08-18 21:42:00,
2013-08-18 14:47:00,95.9,56.5,29.94,NNW,331,2.0,7.0,27,0.00,,,0.00,752.0,meteohub,2013-08-18 21:47:00,
2013-08-18 14:52:00,97.0,57.4,29.94,WSW,252,0.0,5.0,27,0.00,,,0.00,587.0,meteohub,2013-08-18 21:52:00,
2013-08-18 14:57:00,97.5,56.8,29.94,ESE,107,2.0,7.0,26,0.00,,,0.00,631.0,meteohub,2013-08-18 21:57:00,
2013-08-18 15:02:00,97.9,55.0,29.94,WSW,248,2.0,7.0,24,0.00,,,0.00,492.0,meteohub,2013-08-18 22:02:00,
2013-08-18 15:07:00,97.7,55.9,29.93,NW,325,2.0,10.0,25,0.00,,,0.00,824.0,meteohub,2013-08-18 22:07:00,
2013-08-18 15:12:00,97.5,55.8,29.93,North,9,0.0,10.0,25,0.00,,,0.00,587.0,meteohub,2013-08-18 22:12:00,
2013-08-18 15:17:00,97.5,54.7,29.93,West,259,3.0,6.0,24,0.00,,,0.00,795.0,meteohub,2013-08-18 22:17:00,
2013-08-18 15:22:00,97.5,54.7,29.92,SSW,204,0.0,5.0,24,0.00,,,0.00,703.0,meteohub,2013-08-18 22:22:00,
2013-08-18 15:27:00,98.1,56.3,29.92,SW,221,1.0,8.0,25,0.00,,,0.00,745.0,meteohub,2013-08-18 22:27:00,
2013-08-18 15:32:00,98.8,55.8,29.91,SSW,200,1.0,8.0,24,0.00,,,0.00,775.0,meteohub,2013-08-18 22:32:00,
2013-08-18 15:37:00,99.1,54.9,29.91,WSW,240,3.0,7.0,23,0.00,,,0.00,775.0,meteohub,2013-08-18 22:37:00,
2013-08-18 15:42:00,99.9,54.1,29.91,West,275,0.0,5.0,22,0.00,,,0.00,705.0,meteohub,2013-08-18 22:42:00,
2013-08-18 15:47:00,99.7,55.2,29.91,SSW,201,0.0,5.0,23,0.00,,,0.00,568.0,meteohub,2013-08-18 22:47:00,
2013-08-18 15:52:00,99.1,55.9,29.91,ENE,73,4.0,5.0,24,0.00,,,0.00,629.0,meteohub,2013-08-18 22:52:00,
2013-08-18 15:57:00,98.1,55.0,29.91,ENE,76,2.0,4.0,24,0.00,,,0.00,318.0,meteohub,2013-08-18 22:57:00,
2013-08-18 16:02:00,97.3,54.5,29.91,East,82,1.0,4.0,24,0.00,,,0.00,380.0,meteohub,2013-08-18 23:02:00,
2013-08-18 16:07:00,97.0,55.4,29.91,East,82,0.0,4.0,25,0.00,,,0.00,536.0,meteohub,2013-08-18 23:07:00,
2013-08-18 16:12:00,97.5,54.7,29.90,NNW,331,1.0,4.0,24,0.00,,,0.00,315.0,meteohub,2013-08-18 23:12:00,
2013-08-18 16:17:00,98.1,55.0,29.90,NNE,26,0.0,4.0,24,0.00,,,0.00,677.0,meteohub,2013-08-18 23:17:00,
2013-08-18 16:22:00,98.2,54.1,29.90,NW,311,1.0,4.0,23,0.00,,,0.00,629.0,meteohub,2013-08-18 23:22:00,
2013-08-18 16:27:00,98.1,54.0,29.90,ENE,67,0.0,3.0,23,0.00,,,0.00,271.0,meteohub,2013-08-18 23:27:00,
2013-08-18 16:32:00,97.5,53.4,29.90,ENE,74,3.0,5.0,23,0.00,,,0.00,557.0,meteohub,2013-08-18 23:32:00,
2013-08-18 16:37:00,97.5,54.7,29.90,ENE,74,1.0,5.0,24,0.00,,,0.00,540.0,meteohub,2013-08-18 23:37:00,
2013-08-18 16:42:00,98.1,55.0,29.90,NNW,331,0.0,4.0,24,0.00,,,0.00,596.0,meteohub,2013-08-18 23:42:00,
2013-08-18 16:47:00,98.2,55.2,29.90,ENE,72,0.0,4.0,24,0.00,,,0.00,563.0,meteohub,2013-08-18 23:47:00,
2013-08-18 16:52:00,98.6,54.3,29.90,NE,52,0.0,6.0,23,0.00,,,0.00,410.0,meteohub,2013-08-18 23:52:00,
2013-08-18 16:57:00,99.1,54.9,29.90,ENE,67,1.0,6.0,23,0.00,,,0.00,545.0,meteohub,2013-08-18 23:57:00,
2013-08-18 17:02:00,99.1,53.6,29.90,ENE,67,2.0,6.0,22,0.00,,,0.00,450.0,meteohub,2013-08-19 00:02:00,
2013-08-18 17:07:00,99.0,54.7,29.90,NW,325,1.0,3.0,23,0.00,,,0.00,494.0,meteohub,2013-08-19 00:07:00,
2013-08-18 17:12:00,99.1,53.6,29.90,ENE,71,1.0,3.0,22,0.00,,,0.00,480.0,meteohub,2013-08-19 00:12:00,
2013-08-18 17:17:00,99.1,53.6,29.89,NE,53,1.0,4.0,22,0.00,,,0.00,487.0,meteohub,2013-08-19 00:17:00,
2013-08-18 17:22:00,99.0,53.4,29.89,NE,47,1.0,4.0,22,0.00,,,0.00,478.0,meteohub,2013-08-19 00:22:00,
2013-08-18 17:27:00,99.7,54.1,29.89,WNW,282,3.0,4.0,22,0.00,,,0.00,450.0,meteohub,2013-08-19 00:27:00,
2013-08-18 17:32:00,99.9,52.9,29.89,SW,216,0.0,4.0,21,0.00,,,0.00,438.0,meteohub,2013-08-19 00:32:00,
2013-08-18 17:37:00,100.2,52.0,29.89,SW,225,5.0,5.0,20,0.00,,,0.00,429.0,meteohub,2013-08-19 00:37:00,
2013-08-18 17:42:00,99.9,51.6,29.89,West,267,4.0,9.0,20,0.00,,,0.00,434.0,meteohub,2013-08-19 00:42:00,
2013-08-18 17:47:00,99.9,50.2,29.89,SW,214,6.0,9.0,19,0.00,,,0.00,429.0,meteohub,2013-08-19 00:47:00,
2013-08-18 17:52:00,99.7,48.6,29.88,West,280,3.0,9.0,18,0.00,,,0.00,420.0,meteohub,2013-08-19 00:52:00,
2013-08-18 17:57:00,99.3,48.4,29.88,West,269,1.0,8.0,18,0.00,,,0.00,195.0,meteohub,2013-08-19 00:57:00,
2013-08-18 18:02:00,99.3,48.4,29.88,SW,232,3.0,8.0,18,0.00,,,0.00,290.0,meteohub,2013-08-19 01:02:00,
2013-08-18 18:07:00,99.1,46.8,29.88,SW,232,6.0,8.0,17,0.00,,,0.00,274.0,meteohub,2013-08-19 01:07:00,
2013-08-18 18:12:00,99.0,46.6,29.88,WSW,241,1.0,8.0,17,0.00,,,0.00,90.0,meteohub,2013-08-19 01:12:00,
2013-08-18 18:17:00,98.4,47.7,29.88,WNW,291,4.0,8.0,18,0.00,,,0.00,260.0,meteohub,2013-08-19 01:17:00,
2013-08-18 18:22:00,98.1,50.2,29.88,SSW,204,0.0,8.0,20,0.00,,,0.00,49.0,meteohub,2013-08-19 01:22:00,
2013-08-18 18:27:00,97.3,53.4,29.89,WSW,238,3.0,6.0,23,0.00,,,0.00,47.0,meteohub,2013-08-19 01:27:00,
2013-08-18 18:32:00,96.4,57.0,29.89,SW,221,3.0,9.0,27,0.00,,,0.00,200.0,meteohub,2013-08-19 01:32:00,
2013-08-18 18:37:00,95.5,57.2,29.89,SSW,198,4.0,9.0,28,0.00,,,0.00,209.0,meteohub,2013-08-19 01:37:00,
2013-08-18 18:42:00,95.2,57.9,29.89,SW,227,1.0,9.0,29,0.00,,,0.00,200.0,meteohub,2013-08-19 01:42:00,
2013-08-18 18:47:00,94.8,57.6,29.89,WSW,242,2.0,6.0,29,0.00,,,0.00,181.0,meteohub,2013-08-19 01:47:00,
2013-08-18 18:52:00,94.5,58.3,29.89,SW,218,3.0,6.0,30,0.00,,,0.00,165.0,meteohub,2013-08-19 01:52:00,
2013-08-18 18:57:00,93.9,58.6,29.89,SW,215,1.0,6.0,31,0.00,,,0.00,144.0,meteohub,2013-08-19 01:57:00,
2013-08-18 19:02:00,93.6,59.2,29.89,SW,229,4.0,6.0,32,0.00,,,0.00,123.0,meteohub,2013-08-19 02:02:00,
2013-08-18 19:07:00,93.4,59.2,29.89,WSW,242,0.0,6.0,32,0.00,,,0.00,105.0,meteohub,2013-08-19 02:07:00,
2013-08-18 19:13:00,92.8,59.5,29.89,SW,229,3.0,6.0,33,0.00,,,0.00,88.0,meteohub,2013-08-19 02:13:00,
2013-08-18 19:18:00,92.5,60.1,29.89,SW,220,0.0,6.0,34,0.00,,,0.00,74.0,meteohub,2013-08-19 02:18:00,
2013-08-18 19:23:00,91.9,60.4,29.89,SW,229,3.0,6.0,35,0.00,,,0.00,46.0,meteohub,2013-08-19 02:23:00,
2013-08-18 19:28:00,91.4,60.6,29.90,SW,232,2.0,6.0,36,0.00,,,0.00,37.0,meteohub,2013-08-19 02:28:00,
2013-08-18 19:33:00,90.7,60.1,29.90,SW,219,1.0,6.0,36,0.00,,,0.00,32.0,meteohub,2013-08-19 02:33:00,
2013-08-18 19:38:00,90.0,60.3,29.90,West,265,1.0,6.0,37,0.00,,,0.00,23.0,meteohub,2013-08-19 02:38:00,
2013-08-18 19:43:00,89.2,60.3,29.90,SW,222,0.0,6.0,38,0.00,,,0.00,14.0,meteohub,2013-08-19 02:43:00,
2013-08-18 19:48:00,89.1,60.1,29.90,SW,222,0.0,6.0,38,0.00,,,0.00,7.0,meteohub,2013-08-19 02:48:00,
2013-08-18 19:53:00,88.3,60.3,29.90,SW,222,0.0,6.0,39,0.00,,,0.00,5.0,meteohub,2013-08-19 02:53:00,
2013-08-18 19:59:00,88.0,59.9,29.90,SW,222,2.0,6.0,39,0.00,,,0.00,0.0,meteohub,2013-08-19 02:59:00,
2013-08-18 20:04:00,87.4,60.1,29.90,SW,222,0.0,2.0,40,0.00,,,0.00,0.0,meteohub,2013-08-19 03:04:00,
2013-08-18 20:09:00,87.3,59.9,29.90,SW,222,0.0,2.0,40,0.00,,,0.00,0.0,meteohub,2013-08-19 03:09:00,
2013-08-18 20:14:00,86.7,60.3,29.90,SW,222,0.0,2.0,41,0.00,,,0.00,0.0,meteohub,2013-08-19 03:14:00,
2013-08-18 20:19:00,86.2,59.7,29.89,SSW,199,0.0,1.0,41,0.00,,,0.00,0.0,meteohub,2013-08-19 03:19:00,
2013-08-18 20:24:00,85.6,59.9,29.89,SSW,208,0.0,3.0,42,0.00,,,0.00,0.0,meteohub,2013-08-19 03:24:00,
2013-08-18 20:29:00,85.1,59.4,29.90,SSW,211,0.0,3.0,42,0.00,,,0.00,0.0,meteohub,2013-08-19 03:29:00,
2013-08-18 20:34:00,84.7,59.2,29.90,SSW,211,1.0,3.0,42,0.00,,,0.00,0.0,meteohub,2013-08-19 03:34:00,
2013-08-18 20:39:00,84.4,58.8,29.90,SSW,211,0.0,3.0,42,0.00,,,0.00,0.0,meteohub,2013-08-19 03:39:00,
2013-08-18 20:44:00,84.0,58.5,29.90,SSW,211,0.0,3.0,42,0.00,,,0.00,0.0,meteohub,2013-08-19 03:44:00,
2013-08-18 20:49:00,83.8,59.0,29.91,SSW,211,0.0,2.0,43,0.00,,,0.00,0.0,meteohub,2013-08-19 03:49:00,
2013-08-18 20:54:00,83.7,58.8,29.91,SSW,211,0.0,1.0,43,0.00,,,0.00,0.0,meteohub,2013-08-19 03:54:00,
2013-08-18 20:59:00,83.1,58.3,29.91,SSW,211,0.0,1.0,43,0.00,,,0.00,0.0,meteohub,2013-08-19 03:59:00,
2013-08-18 21:01:00,83.1,58.3,29.91,SSW,211,0.0,0.0,43,0.00,,,0.00,0.0,meteohub,2013-08-19 04:01:00,
2013-08-18 21:02:00,82.9,58.1,29.91,SSW,211,0.0,0.0,43,0.00,,,0.00,0.0,meteohub,2013-08-19 04:02:00,
2013-08-18 21:03:00,82.9,58.1,29.91,SSW,211,0.0,0.0,43,0.00,,,0.00,0.0,meteohub,2013-08-19 04:03:00,
2013-08-18 21:08:00,82.6,57.7,29.91,SSW,211,0.0,0.0,43,0.00,,,0.00,0.0,meteohub,2013-08-19 04:08:00,
2013-08-18 21:13:00,82.2,57.6,29.91,SSW,211,0.0,1.0,43,0.00,,,0.00,0.0,meteohub,2013-08-19 04:13:00,
2013-08-18 21:18:00,81.9,57.2,29.91,SSW,211,0.0,1.0,43,0.00,,,0.00,0.0,meteohub,2013-08-19 04:18:00,
2013-08-18 21:23:00,81.7,57.6,29.91,SSW,211,0.0,0.0,44,0.00,,,0.00,0.0,meteohub,2013-08-19 04:23:00,
2013-08-18 21:28:00,81.5,57.6,29.91,SSW,211,0.0,0.0,44,0.00,,,0.00,0.0,meteohub,2013-08-19 04:28:00,
2013-08-18 21:33:00,81.1,57.7,29.91,SSW,211,0.0,0.0,45,0.00,,,0.00,0.0,meteohub,2013-08-19 04:33:00,
2013-08-18 21:38:00,81.0,57.6,29.91,SSW,211,0.0,0.0,45,0.00,,,0.00,0.0,meteohub,2013-08-19 04:38:00,
2013-08-18 21:44:00,80.4,57.7,29.91,SSW,211,0.0,0.0,46,0.00,,,0.00,0.0,meteohub,2013-08-19 04:44:00,
2013-08-18 21:49:00,80.1,57.4,29.91,SSW,211,0.0,0.0,46,0.00,,,0.00,0.0,meteohub,2013-08-19 04:49:00,
2013-08-18 21:54:00,79.5,57.6,29.91,SSW,211,0.0,1.0,47,0.00,,,0.00,0.0,meteohub,2013-08-19 04:54:00,
2013-08-18 21:59:00,79.2,57.7,29.91,SSW,211,0.0,1.0,48,0.00,,,0.00,0.0,meteohub,2013-08-19 04:59:00,
2013-08-18 22:04:00,79.0,57.6,29.91,SSW,211,0.0,1.0,48,0.00,,,0.00,0.0,meteohub,2013-08-19 05:04:00,
2013-08-18 22:09:00,78.6,57.9,29.91,SSW,211,0.0,1.0,49,0.00,,,0.00,0.0,meteohub,2013-08-19 05:09:00,
2013-08-18 22:14:00,78.3,58.1,29.91,SSW,211,0.0,1.0,50,0.00,,,0.00,0.0,meteohub,2013-08-19 05:14:00,
2013-08-18 22:19:00,78.1,57.4,29.91,SSW,211,0.0,1.0,49,0.00,,,0.00,0.0,meteohub,2013-08-19 05:19:00,
2013-08-18 22:24:00,77.7,57.6,29.91,SSW,211,0.0,1.0,50,0.00,,,0.00,0.0,meteohub,2013-08-19 05:24:00,
2013-08-18 22:29:00,77.5,57.4,29.91,SSW,211,0.0,1.0,50,0.00,,,0.00,0.0,meteohub,2013-08-19 05:29:00,
2013-08-18 22:34:00,77.2,57.0,29.91,SSW,211,0.0,0.0,50,0.00,,,0.00,0.0,meteohub,2013-08-19 05:34:00,
2013-08-18 22:39:00,76.8,57.4,29.91,SSW,211,0.0,0.0,51,0.00,,,0.00,0.0,meteohub,2013-08-19 05:39:00,
2013-08-18 22:44:00,76.6,57.7,29.91,SSW,211,0.0,0.0,52,0.00,,,0.00,0.0,meteohub,2013-08-19 05:44:00,
2013-08-18 22:49:00,76.5,58.1,29.91,SSW,211,0.0,0.0,53,0.00,,,0.00,0.0,meteohub,2013-08-19 05:49:00,
2013-08-18 22:54:00,75.7,57.9,29.90,SSW,211,0.0,0.0,54,0.00,,,0.00,0.0,meteohub,2013-08-19 05:54:00,
2013-08-18 22:59:00,75.6,57.7,29.91,SSW,211,0.0,1.0,54,0.00,,,0.00,0.0,meteohub,2013-08-19 05:59:00,
2013-08-18 23:04:00,75.2,57.9,29.91,SSW,211,0.0,1.0,55,0.00,,,0.00,0.0,meteohub,2013-08-19 06:04:00,
2013-08-18 23:09:00,74.7,57.4,29.91,SSW,211,0.0,1.0,55,0.00,,,0.00,0.0,meteohub,2013-08-19 06:09:00,
2013-08-18 23:14:00,74.3,56.7,29.91,SSW,211,0.0,1.0,54,0.00,,,0.00,0.0,meteohub,2013-08-19 06:14:00,
2013-08-18 23:19:00,74.1,56.5,29.91,SSW,211,0.0,1.0,54,0.00,,,0.00,0.0,meteohub,2013-08-19 06:19:00,
2013-08-18 23:24:00,73.9,56.3,29.92,SSW,211,0.0,1.0,54,0.00,,,0.00,0.0,meteohub,2013-08-19 06:24:00,
2013-08-18 23:29:00,73.9,56.3,29.92,SSW,211,0.0,0.0,54,0.00,,,0.00,0.0,meteohub,2013-08-19 06:29:00,
2013-08-18 23:35:00,74.1,56.8,29.92,SSW,211,0.0,0.0,55,0.00,,,0.00,0.0,meteohub,2013-08-19 06:35:00,
2013-08-18 23:40:00,74.3,56.7,29.92,SSW,211,0.0,1.0,54,0.00,,,0.00,0.0,meteohub,2013-08-19 06:40:00,
2013-08-18 23:45:00,74.1,56.5,29.93,SSW,211,0.0,1.0,54,0.00,,,0.00,0.0,meteohub,2013-08-19 06:45:00,
2013-08-18 23:50:00,74.1,56.5,29.93,SSW,211,0.0,1.0,54,0.00,,,0.00,0.0,meteohub,2013-08-19 06:50:00,
2013-08-18 23:55:00,74.1,57.4,29.92,SSW,211,0.0,1.0,56,0.00,,,0.00,0.0,meteohub,2013-08-19 06:55:00,